Weather History for Houghton, MI

Change the Weather History Date:

Friday, July 12, 2013

  Actual Average Record
Temperature  
Mean Temperature 70 °F -  
Max Temperature 84 °F 74 °F 91 °F (1998)
Min Temperature 57 °F 55 °F 46 °F (1967)
Cooling Degree Days 6    
Growing Degree Days 20 (Base 50)    
Moisture  
Dew Point 58 °F    
Average Humidity 63    
Maximum Humidity 81    
Minimum Humidity 44    
Precipitation  
Precipitation 0.00 in - - ()
Sea Level Pressure  
Sea Level Pressure 30.02 in    
Wind  
Wind Speed 5 mph (South)    
Max Wind Speed 15 mph    
Max Gust Speed 21 mph    
Visibility 10 miles    
Events      
Averages and records for this station are not official NWS values.
T = Trace of Precipitation, MM = Missing Value Source: NWS Daily Summary

Daily Weather History Graph

Daily Weather History Graph

Search for Another Location

Airport:

Trip Planner

Search our weather history database for the weather conditions in past years. The results will help you decide how hot, cold, wet, or windy it might be!

Date:

Astronomy

Jul. 12, 2013 Rise Set
Actual Time 6:10 AM EDT 9:47 PM EDT
Civil Twilight 5:32 AM EDT 10:26 PM EDT
Nautical Twilight 4:40 AM EDT 11:17 PM EDT
Astronomical Twilight 3:29 AM EDT 12:28 AM EDT
Moon 10:48 AM EDT (7/12) 11:35 PM EDT (7/12)
Length of Visible Light 16h 54m
Length of Day
15h 37m
Waxing Crescent, 17% of the Moon is Illuminated
Jul 12
Waxing Crescent
Jul 15
First Quarter
Jul 22
Full
Jul 29
Last Quarter
Aug 6
New

Hourly Weather History & Observations

Time (EDT) Temp. Heat Index Dew Point Humidity Pressure Visibility Wind Dir Wind Speed Gust Speed Precip Events Conditions
12:53 AM 60.1 °F - 51.1 °F 72% 30.03 in 10.0 mi East 3.5 mph - N/A   Clear
1:53 AM 57.9 °F - 50.0 °F 75% 30.01 in 10.0 mi Calm Calm - N/A   Clear
2:53 AM 59.0 °F - 53.1 °F 81% 30.03 in 10.0 mi Calm Calm - N/A   Clear
3:53 AM 59.0 °F - 52.0 °F 78% 30.02 in 10.0 mi Calm Calm - N/A   Clear
4:53 AM 62.1 °F - 54.0 °F 75% 30.04 in 10.0 mi WSW 3.5 mph - N/A   Clear
5:53 AM 61.0 °F - 54.0 °F 78% 30.04 in 10.0 mi SSW 3.5 mph - N/A   Clear
6:53 AM 63.0 °F - 55.0 °F 75% 30.05 in 10.0 mi SSW 3.5 mph - N/A   Clear
7:53 AM 64.0 °F - 57.0 °F 78% 30.05 in 10.0 mi SSW 5.8 mph - N/A   Clear
8:53 AM 64.9 °F - 59.0 °F 81% 30.07 in 10.0 mi SSW 3.5 mph - N/A   Partly Cloudy
9:53 AM 69.1 °F - 61.0 °F 75% 30.07 in 10.0 mi South 3.5 mph - N/A   Scattered Clouds
10:53 AM 73.0 °F - 62.1 °F 68% 30.06 in 10.0 mi South 4.6 mph - N/A   Clear
11:53 AM 78.1 °F - 63.0 °F 60% 30.05 in 10.0 mi SSW 8.1 mph - N/A   Clear
12:53 PM 80.1 °F 81.2 °F 62.1 °F 54% 30.04 in 10.0 mi South 9.2 mph - N/A   Clear
1:53 PM 81.0 °F 81.7 °F 61.0 °F 50% 30.02 in 10.0 mi South 11.5 mph - N/A   Clear
2:53 PM 82.9 °F 83.3 °F 61.0 °F 47% 30.02 in 10.0 mi South 11.5 mph 18.4 mph N/A   Clear
3:53 PM 84.0 °F 84.0 °F 60.1 °F 44% 30.00 in 10.0 mi SSW 11.5 mph - N/A   Clear
4:53 PM 82.9 °F 82.8 °F 59.0 °F 44% 29.99 in 10.0 mi South 13.8 mph 20.7 mph N/A   Clear
5:53 PM 82.0 °F 82.4 °F 60.1 °F 47% 29.98 in 10.0 mi South 8.1 mph - N/A   Clear
6:53 PM 82.0 °F 82.1 °F 59.0 °F 45% 29.97 in 10.0 mi South 15.0 mph 20.7 mph N/A   Clear
7:53 PM 82.0 °F 82.4 °F 60.1 °F 47% 29.97 in 10.0 mi South 9.2 mph 20.7 mph N/A   Clear
8:53 PM 79.0 °F - 60.1 °F 52% 29.97 in 10.0 mi South 9.2 mph - N/A   Clear
9:53 PM 75.9 °F - 60.1 °F 58% 29.97 in 10.0 mi South 5.8 mph - N/A   Clear
10:53 PM 73.9 °F - 59.0 °F 59% 29.97 in 10.0 mi South 10.4 mph - N/A   Clear
11:53 PM 73.0 °F - 59.0 °F 61% 29.97 in 10.0 mi South 11.5 mph - N/A   Clear